Weather History for Keahole Point, HI

Change the Weather History Date:

Saturday, December 22, 2012

  Actual Average Record
Temperature  
Mean Temperature 75 °F -  
Max Temperature 81 °F 79 °F 86 °F (1982)
Min Temperature 69 °F 68 °F 62 °F (1983)
Cooling Degree Days 10    
Growing Degree Days 25 (Base 50)    
Moisture  
Dew Point 59 °F    
Average Humidity 55    
Maximum Humidity 68    
Minimum Humidity 46    
Precipitation  
Precipitation 0.00 in - - ()
Sea Level Pressure  
Sea Level Pressure 29.99 in    
Wind  
Wind Speed 7 mph (ESE)    
Max Wind Speed 10 mph    
Max Gust Speed -    
Visibility 10 miles    
Events      
Averages and records for this station are not official NWS values.
T = Trace of Precipitation, MM = Missing Value Source: NWS Daily Summary

Daily Weather History Graph

Daily Weather History Graph

Search for Another Location

Airport:

Trip Planner

Search our weather history database for the weather conditions in past years. The results will help you decide how hot, cold, wet, or windy it might be!

Date:

Astronomy

Dec. 22, 2012 Rise Set
Actual Time 6:54 AM HST 5:51 PM HST
Civil Twilight 6:30 AM HST 6:15 PM HST
Nautical Twilight 6:03 AM HST 6:42 PM HST
Astronomical Twilight 5:36 AM HST 7:10 PM HST
Moon 1:55 PM HST (12/22) 2:13 AM HST (12/22)
Length of Visible Light 11h 44m
Length of Day
10h 56m
Waxing Gibbous, 75% of the Moon is Illuminated
Dec 22
Waxing Gibbous
Dec 28
Full
Jan 4
Last Quarter
Jan 11
New
Jan 18
First Quarter

Hourly Weather History & Observations

Time (HST) Temp. Heat Index Dew Point Humidity Pressure Visibility Wind Dir Wind Speed Gust Speed Precip Events Conditions
12:53 AM 73.0 °F - 60.1 °F 64% 30.00 in 10.0 mi ESE 9.2 mph - N/A   Clear
1:53 AM 73.0 °F - 59.0 °F 61% 30.00 in 10.0 mi ESE 8.1 mph - N/A   Scattered Clouds
2:53 AM 73.9 °F - 59.0 °F 59% 29.99 in 10.0 mi ESE 6.9 mph - N/A   Mostly Cloudy
3:53 AM 73.0 °F - 57.0 °F 57% 29.99 in 10.0 mi ESE 6.9 mph - N/A   Partly Cloudy
4:53 AM 72.0 °F - 57.0 °F 59% 30.00 in 10.0 mi ESE 8.1 mph - N/A   Clear
5:53 AM 72.0 °F - 55.9 °F 57% 30.00 in 10.0 mi East 6.9 mph - N/A   Clear
6:53 AM 69.1 °F - 54.0 °F 58% 30.02 in 10.0 mi ENE 3.5 mph - N/A   Clear
7:53 AM 72.0 °F - 54.0 °F 53% 30.04 in 10.0 mi Calm Calm - N/A   Clear
8:53 AM 78.1 °F - 55.9 °F 46% 30.04 in 10.0 mi Calm Calm - N/A   Clear
9:53 AM 79.0 °F - 57.0 °F 47% 30.04 in 10.0 mi West 5.8 mph - N/A   Clear
10:53 AM 80.1 °F 80.9 °F 60.1 °F 50% 30.02 in 10.0 mi WSW 8.1 mph - N/A   Clear
11:53 AM 81.0 °F 81.9 °F 62.1 °F 52% 30.00 in 10.0 mi West 9.2 mph - N/A   Clear
12:53 PM 81.0 °F 81.9 °F 62.1 °F 52% 29.96 in 10.0 mi West 10.4 mph - N/A   Clear
1:53 PM 80.1 °F 81.2 °F 62.1 °F 54% 29.94 in 10.0 mi West 9.2 mph - N/A   Clear
2:53 PM 80.1 °F 80.7 °F 59.0 °F 48% 29.92 in 10.0 mi NW 8.1 mph - N/A   Clear
3:53 PM 81.0 °F 81.3 °F 59.0 °F 47% 29.92 in 10.0 mi NW 10.4 mph - N/A   Clear
4:53 PM 80.1 °F 80.6 °F 57.9 °F 47% 29.92 in 10.0 mi NNW 8.1 mph - N/A   Clear
5:53 PM 78.1 °F - 57.9 °F 50% 29.94 in 10.0 mi Calm Calm - N/A   Clear
6:53 PM 77.0 °F - 60.1 °F 56% 29.98 in 10.0 mi SE 9.2 mph - N/A   Partly Cloudy
7:53 PM 75.0 °F - 59.0 °F 57% 29.99 in 10.0 mi ESE 5.8 mph - N/A   Scattered Clouds
8:53 PM 73.9 °F - 57.9 °F 57% 30.00 in 10.0 mi SE 6.9 mph - N/A   Clear
9:53 PM 73.9 °F - 60.1 °F 62% 30.01 in 10.0 mi ESE 6.9 mph - N/A   Clear
10:53 PM 73.0 °F - 60.1 °F 64% 30.02 in 10.0 mi ESE 5.8 mph - N/A   Clear
11:53 PM 71.1 °F - 60.1 °F 68% 30.02 in 10.0 mi East 4.6 mph - N/A   Clear